When you browse on this site, cookies collect data to enhance your experience and personalize the content and advertising you see.
Visit our Privacy Policy to learn more. By continuing to use the site, you agree to this use of cookies and data.
  • în România
  • Lista ţărilor
  • Pe 7 zile
  • Temperatura apei
  • Hartă satelitară
  • Meteo pe hartă
  • Widget-uri
  • user-avatar
    Intrare

    Meteo pe oră la Malanje

    Astăzi, 16 Ianuarie, Miercuri

    Timp Temperatura Precipitaţii Vânt Presiune Umiditate
    00:00 +20°C° 0 mm 1 m/s 665 mmHg 95%
    01:00 +18°C° 0 mm 2 m/s 665 mmHg 96%
    02:00 +18°C° 0.1 mm 2 m/s 665 mmHg 97%
    03:00 +18°C° 0.1 mm 2 m/s 665 mmHg 98%
    04:00 +18°C° 0.1 mm 2 m/s 665 mmHg 99%
    05:00 +19°C° 0 mm 2 m/s 666 mmHg 98%
    06:00 +19°C° 0 mm 2 m/s 666 mmHg 96%
    07:00 +19°C° 0 mm 2 m/s 666 mmHg 95%
    08:00 +21°C° 0 mm 2 m/s 666 mmHg 88%
    09:00 +23°C° 0 mm 2 m/s 667 mmHg 81%
    10:00 +25°C° 0 mm 2 m/s 667 mmHg 74%
    11:00 +26°C° 0 mm 2 m/s 666 mmHg 68%
    12:00 +27°C° 0 mm 2 m/s 666 mmHg 61%
    13:00 +29°C° 0 mm 2 m/s 666 mmHg 55%
    14:00 +28°C° 0.1 mm 2 m/s 665 mmHg 59%
    15:00 +28°C° 0.1 mm 2 m/s 664 mmHg 62%
    16:00 +28°C° 0.1 mm 2 m/s 664 mmHg 65%
    17:00 +26°C° 0.4 mm 2 m/s 664 mmHg 73%
    18:00 +24°C° 0.4 mm 2 m/s 664 mmHg 82%
    19:00 +20°C° 0.4 mm 2 m/s 664 mmHg 90%
    20:00 +21°C° 0 mm 1 m/s 664 mmHg 91%
    21:00 +21°C° 0 mm 1 m/s 665 mmHg 91%
    22:00 +20°C° 0 mm 1 m/s 665 mmHg 92%
    23:00 +20°C° 0.6 mm 1 m/s 665 mmHg 94%

    Mâine, 17 Ianuarie, Joi

    Timp Temperatura Precipitaţii Vânt Presiune Umiditate
    00:00 +20°C° 0.6 mm 1 m/s 665 mmHg 96%
    01:00 +19°C° 0.6 mm 2 m/s 665 mmHg 98%
    02:00 +19°C° 0.2 mm 2 m/s 665 mmHg 98%
    03:00 +18°C° 0.2 mm 2 m/s 665 mmHg 98%
    04:00 +19°C° 0.2 mm 1 m/s 665 mmHg 99%
    05:00 +19°C° 0 mm 1 m/s 665 mmHg 98%
    06:00 +20°C° 0 mm 1 m/s 665 mmHg 97%
    07:00 +20°C° 0 mm 1 m/s 666 mmHg 96%
    08:00 +21°C° 0.1 mm 1 m/s 666 mmHg 90%
    09:00 +23°C° 0.1 mm 1 m/s 667 mmHg 84%
    10:00 +24°C° 0.1 mm 1 m/s 667 mmHg 77%
    11:00 +25°C° 0.1 mm 1 m/s 667 mmHg 74%
    12:00 +25°C° 0.1 mm 1 m/s 666 mmHg 70%
    13:00 +26°C° 0.1 mm 1 m/s 665 mmHg 67%
    14:00 +26°C° 0 mm 1 m/s 665 mmHg 67%
    15:00 +27°C° 0 mm 2 m/s 665 mmHg 67%
    16:00 +27°C° 0 mm 2 m/s 664 mmHg 67%
    17:00 +25°C° 0.2 mm 2 m/s 664 mmHg 75%
    18:00 +23°C° 0.2 mm 2 m/s 664 mmHg 83%
    19:00 +21°C° 0.2 mm 1 m/s 664 mmHg 92%
    20:00 +21°C° 0 mm 1 m/s 665 mmHg 91%
    21:00 +21°C° 0 mm 1 m/s 665 mmHg 91%
    22:00 +20°C° 0 mm 1 m/s 666 mmHg 91%
    23:00 +20°C° 0.2 mm 1 m/s 666 mmHg 93%

    Poimâine, 18 Ianuarie, Vineri

    Timp Temperatura Precipitaţii Vânt Presiune Umiditate
    00:00 +20°C° 0.2 mm 1 m/s 665 mmHg 95%
    01:00 +19°C° 0.2 mm 2 m/s 665 mmHg 97%
    02:00 +20°C° 0 mm 1 m/s 665 mmHg 97%
    03:00 +19°C° 0 mm 1 m/s 665 mmHg 98%
    04:00 +19°C° 0 mm 1 m/s 664 mmHg 98%
    05:00 +19°C° 0 mm 1 m/s 665 mmHg 97%
    06:00 +20°C° 0 mm 1 m/s 665 mmHg 95%
    07:00 +18°C° 0 mm 0 m/s 665 mmHg 94%
    08:00 +22°C° 0.1 mm 1 m/s 666 mmHg 86%
    09:00 +24°C° 0.1 mm 1 m/s 667 mmHg 79%
    10:00 +26°C° 0.1 mm 1 m/s 667 mmHg 71%
    11:00 +26°C° 0.6 mm 1 m/s 667 mmHg 68%
    12:00 +27°C° 0.6 mm 1 m/s 666 mmHg 66%
    13:00 +28°C° 0.6 mm 1 m/s 666 mmHg 63%
    14:00 +27°C° 0.5 mm 1 m/s 665 mmHg 68%
    15:00 +27°C° 0.5 mm 1 m/s 665 mmHg 73%
    16:00 +26°C° 0.5 mm 1 m/s 664 mmHg 78%
    17:00 +25°C° 0.2 mm 1 m/s 664 mmHg 82%
    18:00 +23°C° 0.2 mm 1 m/s 664 mmHg 86%
    19:00 +20°C° 0.2 mm 2 m/s 664 mmHg 90%
    20:00 +21°C° 0 mm 1 m/s 665 mmHg 90%
    21:00 +21°C° 0 mm 1 m/s 665 mmHg 89%
    22:00 +20°C° 0 mm 1 m/s 666 mmHg 88%
    23:00 +20°C° 0 mm 1 m/s 665 mmHg 89%

    19 Ianuarie, Sâmbătă

    Timp Temperatura Precipitaţii Vânt Presiune Umiditate
    00:00 +19°C° 0 mm 1 m/s 665 mmHg 90%
    01:00 +19°C° 0 mm 1 m/s 665 mmHg 91%
    02:00 +19°C° 0 mm 1 m/s 664 mmHg 93%
    03:00 +18°C° 0 mm 1 m/s 664 mmHg 94%
    04:00 +17°C° 0 mm 2 m/s 664 mmHg 96%
    05:00 +17°C° 0 mm 2 m/s 665 mmHg 95%
    06:00 +18°C° 0 mm 2 m/s 665 mmHg 94%
    07:00 +18°C° 0 mm 2 m/s 666 mmHg 93%
    08:00 +20°C° 0 mm 2 m/s 666 mmHg 84%
    09:00 +24°C° 0 mm 2 m/s 667 mmHg 75%
    10:00 +26°C° 0 mm 2 m/s 667 mmHg 66%
    11:00 +27°C° 0 mm 2 m/s 667 mmHg 62%
    12:00 +28°C° 0 mm 2 m/s 666 mmHg 58%
    13:00 +29°C° 0 mm 2 m/s 665 mmHg 54%
    14:00 +29°C° 0.2 mm 2 m/s 665 mmHg 58%
    15:00 +28°C° 0.2 mm 2 m/s 665 mmHg 62%
    16:00 +28°C° 0.2 mm 2 m/s 664 mmHg 66%
    17:00 +26°C° 0.1 mm 2 m/s 665 mmHg 73%
    18:00 +24°C° 0.1 mm 2 m/s 665 mmHg 79%
    19:00 +21°C° 0.1 mm 2 m/s 665 mmHg 85%
    20:00 +22°C° 0.1 mm 1 m/s 666 mmHg 87%
    21:00 +21°C° 0.1 mm 1 m/s 666 mmHg 88%
    22:00 +21°C° 0.1 mm 1 m/s 667 mmHg 89%
    23:00 +21°C° 0.1 mm 1 m/s 666 mmHg 91%

    20 Ianuarie, Duminică

    Timp Temperatura Precipitaţii Vânt Presiune Umiditate
    00:00 +20°C° 0.1 mm 1 m/s 665 mmHg 93%
    01:00 +19°C° 0.1 mm 2 m/s 665 mmHg 94%
    02:00 +20°C° 0 mm 1 m/s 665 mmHg 94%
    03:00 +20°C° 0 mm 1 m/s 664 mmHg 95%
    04:00 +19°C° 0 mm 1 m/s 664 mmHg 95%
    05:00 +20°C° 0.3 mm 1 m/s 665 mmHg 95%
    06:00 +20°C° 0.3 mm 1 m/s 665 mmHg 95%
    07:00 +20°C° 0.3 mm 1 m/s 666 mmHg 96%
    08:00 +21°C° 0.1 mm 1 m/s 666 mmHg 91%
    09:00 +23°C° 0.1 mm 1 m/s 666 mmHg 86%
    10:00 +24°C° 0.1 mm 2 m/s 667 mmHg 82%
    11:00 +26°C° 0.1 mm 2 m/s 666 mmHg 73%
    12:00 +27°C° 0.1 mm 2 m/s 666 mmHg 64%
    13:00 +29°C° 0.1 mm 2 m/s 666 mmHg 55%
    14:00 +28°C° 0.2 mm 2 m/s 665 mmHg 60%
    15:00 +28°C° 0.2 mm 2 m/s 665 mmHg 64%
    16:00 +27°C° 0.2 mm 2 m/s 664 mmHg 69%
    17:00 +26°C° 0.3 mm 1 m/s 664 mmHg 74%
    18:00 +24°C° 0.3 mm 1 m/s 665 mmHg 80%
    19:00 +22°C° 0.3 mm 1 m/s 665 mmHg 85%
    20:00 +22°C° 0 mm 1 m/s 665 mmHg 86%
    21:00 +21°C° 0 mm 1 m/s 666 mmHg 86%
    22:00 +19°C° 0 mm 0 m/s 666 mmHg 87%
    23:00 +21°C° 0.1 mm 1 m/s 666 mmHg 89%

    21 Ianuarie, Luni

    Timp Temperatura Precipitaţii Vânt Presiune Umiditate
    00:00 +20°C° 0.1 mm 1 m/s 665 mmHg 92%
    01:00 +19°C° 0.1 mm 2 m/s 665 mmHg 95%
    02:00 +18°C° 0 mm 2 m/s 665 mmHg 95%
    03:00 +19°C° 0 mm 1 m/s 665 mmHg 96%
    04:00 +19°C° 0 mm 1 m/s 665 mmHg 97%
    05:00 +19°C° 0.1 mm 1 m/s 665 mmHg 97%
    06:00 +19°C° 0.1 mm 1 m/s 666 mmHg 97%
    07:00 +19°C° 0.1 mm 1 m/s 666 mmHg 97%
    08:00 +19°C° 0.3 mm 1 m/s 666 mmHg 97%
    09:00 +19°C° 0.3 mm 1 m/s 666 mmHg 96%
    10:00 +20°C° 0.3 mm 1 m/s 666 mmHg 96%
    11:00 +20°C° 0.5 mm 1 m/s 666 mmHg 94%
    12:00 +20°C° 0.5 mm 1 m/s 665 mmHg 93%
    13:00 +20°C° 0.5 mm 1 m/s 664 mmHg 91%
    14:00 +21°C° 0.1 mm 1 m/s 664 mmHg 87%
    15:00 +23°C° 0.1 mm 1 m/s 664 mmHg 82%
    16:00 +24°C° 0.1 mm 2 m/s 663 mmHg 78%
    17:00 +23°C° 0 mm 1 m/s 664 mmHg 81%
    18:00 +22°C° 0 mm 1 m/s 664 mmHg 84%
    19:00 +21°C° 0 mm 1 m/s 664 mmHg 88%
    20:00 +20°C° 0 mm 1 m/s 664 mmHg 88%
    21:00 +20°C° 0 mm 1 m/s 665 mmHg 89%
    22:00 +20°C° 0 mm 1 m/s 665 mmHg 89%
    23:00 +19°C° 0 mm 1 m/s 665 mmHg 89%
    Arată mai mult